Fort Rucker, AL

8:59 PM CST on February 05, 2016 (GMT -0600)
Fort Rucker / Ozark

Weather History for KLOR - April, 2014

Change the Weather History Date:

Tuesday, April 15, 2014

  Actual Average (KDHN) Record (KDHN)
Temperature  
Mean Temperature 53 °F 65 °F  
Max Temperature 64 °F 78 °F 138 °F (1998)
Min Temperature 42 °F 53 °F 37 °F (1943)
Degree Days  
Heating Degree Days 12 2  
Month to date heating degree days 50  
Since 1 July heating degree days 1820  
Cooling Degree Days 0 3  
Month to date cooling degree days 29  
Year to date cooling degree days 60  
Growing Degree Days 3 (Base 50)    
Moisture  
Dew Point 52 °F    
Average Humidity 86    
Maximum Humidity 96    
Minimum Humidity 55    
Precipitation  
Precipitation 0.46 in 0.12 in 3.39 in (1961)
Month to date precipitation 2.01  
Year to date precipitation 17.29  
Sea Level Pressure  
Sea Level Pressure 29.86 in    
Wind  
Wind Speed - (North)    
Max Wind Speed -    
Max Gust Speed -    
Visibility 8 miles    
Events Rain , Thunderstorm    
T = Trace of Precipitation, MM = Missing Value Source: NWS Daily Summary

Daily Weather History Graph

Daily Weather History Graph

Search for Another Location

Airport or City:

Trip Planner

Search our weather history database for the weather conditions in past years. The results will help you decide how hot, cold, wet, or windy it might be!

Date:

Astronomy

Apr. 15, 2014 Rise Set
Actual Time 6:14 AM CDT 7:11 PM CDT
Civil Twilight 5:49 AM CDT 7:36 PM CDT
Nautical Twilight 5:20 AM CDT 8:06 PM CDT
Astronomical Twilight 4:50 AM CDT 8:36 PM CDT
Moon 7:49 PM CDT (4/15) 6:23 AM CDT (4/15)
Length of Visible Light 13h 46m
Length of Day
12h 56m
Full, 100% of the Moon is Illuminated
Apr 15
Full
Apr 22
Last Quarter
Apr 29
New
May 6
First Quarter
May 14
Full

Hourly Weather History & Observations

Time (CDT) Temp. Dew Point Humidity Pressure Visibility Wind Dir Wind Speed Gust Speed Precip Events Conditions
12:06 AM 64.0 °F 62.1 °F 93% 29.73 in 4.0 mi North - - 0.06 in Rain , Thunderstorm Thunderstorms and Rain
12:16 AM 64.0 °F 62.1 °F 93% 29.73 in 6.0 mi North - - 0.08 in Rain Light Rain
12:43 AM 64.0 °F 62.1 °F 93% 29.78 in 6.0 mi North - - 0.11 in Rain Light Rain
12:53 AM 64.0 °F 62.1 °F 93% 29.74 in 4.0 mi North - - 0.15 in Rain Heavy Rain
1:04 AM 64.9 °F 62.1 °F 90% 29.74 in 7.0 mi North - - 0.01 in Rain Light Rain
1:13 AM 64.9 °F 62.1 °F 90% 29.76 in 10.0 mi North - - 0.01 in Rain Light Rain
1:31 AM 64.9 °F 63.0 °F 93% 29.76 in 1.8 mi North - - 0.08 in Rain Heavy Rain
1:42 AM 64.0 °F 63.0 °F 96% 29.74 in 2.5 mi North - - 0.10 in Rain Rain
1:49 AM 64.4 °F 62.6 °F 94% 29.74 in 4.0 mi North - - 0.10 in Rain Light Rain
1:53 AM 64.9 °F 63.0 °F 93% 29.74 in 5.0 mi North - - 0.11 in Rain Light Rain
2:03 AM 64.9 °F 63.0 °F 93% 29.74 in 5.0 mi North - - 0.01 in Rain Rain
2:53 AM 64.0 °F 62.1 °F 93% 29.75 in 4.0 mi North - - 0.10 in Rain Light Rain
2:59 AM 64.0 °F 62.1 °F 93% 29.75 in 5.0 mi North - - 0.00 in Rain Light Rain
3:33 AM 64.0 °F 62.1 °F 93% 29.71 in 10.0 mi North - - 0.01 in   Overcast
3:53 AM 64.0 °F 62.1 °F 93% 29.72 in 10.0 mi North - - 0.01 in   Overcast
4:53 AM 64.0 °F 62.1 °F 93% 29.73 in 10.0 mi North - - 0.02 in Rain Light Rain
5:48 AM 64.4 °F 62.6 °F 94% 29.74 in 10.0 mi North - - 0.02 in   Overcast
5:53 AM 64.0 °F 62.1 °F 93% 29.72 in 10.0 mi North - - 0.02 in   Overcast
6:42 AM 64.0 °F 63.0 °F 96% 29.74 in 9.0 mi North - - 0.00 in   Overcast
6:53 AM 64.0 °F 63.0 °F 96% 29.75 in 8.0 mi North - - 0.00 in   Overcast
7:07 AM 64.0 °F 62.1 °F 93% 29.77 in 10.0 mi North - - 0.00 in   Overcast
7:14 AM 59.0 °F 55.9 °F 90% 29.79 in 10.0 mi North - - 0.00 in Rain Light Rain
7:24 AM 55.9 °F 53.1 °F 90% 29.80 in 10.0 mi North - - 0.01 in Rain Light Rain
7:34 AM 55.9 °F 53.1 °F 90% 29.82 in 8.0 mi North - - 0.01 in Rain Light Rain
7:50 AM 55.4 °F 51.8 °F 88% 29.81 in 10.0 mi North - - 0.02 in Rain Light Rain
7:53 AM 55.0 °F 52.0 °F 89% 29.81 in 10.0 mi North - - 0.02 in Rain Light Rain
8:03 AM 54.0 °F 51.1 °F 90% 29.83 in 10.0 mi North - - 0.00 in Rain Light Rain
8:13 AM 53.1 °F 51.1 °F 93% 29.83 in 5.0 mi North - - 0.00 in Rain Light Rain
8:53 AM 51.1 °F 48.9 °F 92% 29.86 in 6.0 mi North - - 0.00 in   Overcast
9:20 AM 51.1 °F 48.9 °F 92% 29.88 in 2.5 mi North - - 0.01 in Rain Light Rain
9:39 AM 51.1 °F 48.0 °F 89% 29.89 in 4.0 mi North - - 0.02 in Rain Light Rain
9:53 AM 51.1 °F 48.0 °F 89% 29.90 in 9.0 mi North - - 0.03 in   Overcast
10:10 AM 50.0 °F 46.9 °F 89% 29.91 in 10.0 mi North - - 0.00 in   Overcast
10:53 AM 51.1 °F 46.9 °F 86% 29.92 in 10.0 mi North - - 0.00 in   Overcast
11:05 AM 52.0 °F 48.0 °F 86% 29.93 in 10.0 mi North - - N/A   Overcast
11:53 AM 50.0 °F 46.0 °F 86% 29.95 in 10.0 mi North - - N/A   Overcast
12:06 PM 51.1 °F 45.0 °F 80% 29.95 in 10.0 mi North - - N/A   Overcast
12:15 PM 50.0 °F 45.0 °F 83% 29.95 in 10.0 mi North - - N/A   Overcast
12:28 PM 51.1 °F 44.1 °F 77% 29.95 in 10.0 mi North - - N/A   Overcast
12:53 PM 52.0 °F 44.1 °F 74% 29.95 in 10.0 mi North - - N/A   Overcast
1:53 PM 50.0 °F 43.0 °F 77% 29.97 in 10.0 mi North - - N/A   Overcast
2:53 PM 50.0 °F 41.0 °F 71% 29.98 in 10.0 mi North - - N/A   Overcast
4:01 PM 54.0 °F 39.9 °F 59% 29.98 in 10.0 mi North - - N/A   Mostly Cloudy
4:53 PM 55.0 °F 39.0 °F 55% 29.98 in 10.0 mi North - - N/A   Partly Cloudy
5:53 PM 53.1 °F 37.0 °F 55% 29.99 in 10.0 mi North - - N/A   Clear
6:53 PM 50.0 °F 35.1 °F 57% 30.02 in 10.0 mi North - - N/A   Clear
7:53 PM 46.0 °F 36.0 °F 68% 30.06 in 10.0 mi North - - N/A   Clear
8:53 PM 43.0 °F 36.0 °F 76% 30.10 in 10.0 mi North - - N/A   Clear
9:53 PM 44.1 °F 37.0 °F 76% 30.12 in 10.0 mi North - - N/A   Clear
10:53 PM 42.1 °F 37.0 °F 82% 30.13 in 10.0 mi North - - N/A   Clear
11:53 PM 43.0 °F 35.1 °F 74% 30.14 in 10.0 mi North - - N/A   Clear